Weather in Caldas Novas

Brazil     17°44′44″S   48°37′32″W
temp.,
°C
wind,
m/s
gust,
m/s
humid.,
%
clouds,
%
prec.,
mm/h
press.,
hPa
HPBL,
m
2 december, thu
thu200:00+21n119290 0.1 101011
03:00+20nnw009391 0.1 101011
06:00+20ese009348 0.0 101111
09:00+25sse127792 1.0 1012412
12:00+31se115365 0.1 10091726
15:00+29e1259100 0.1 1006596
18:00+26wnw117376 0.2 100612
21:00+23nnw00774 0.2 100811
3 december, fri
fri300:00+22wsw118133 0.1 100911
03:00+22nnw1183100 0.4 100711
06:00+21n119179 1.6 100917
09:00+26w1175100 2.7 1009181
12:00+31ne11495 1.1 10081660
15:00+31sw3248100 1.1 10051653
18:00+27s1266100 0.0 100616
21:00+23ese228254 0.3 100917
4 december, sat
sat400:00+21ne119179 0.8 101011
03:00+21ene119114 0.9 100912
06:00+20e11915 0.0 101119
09:00+26e45675 0.0 1012809
12:00+31e444754 0.0 10102207
15:00+30n2251100 0.1 10081093
18:00+26e386869 0.0 1009286
21:00+22e24860 0.1 1011107
5 december, sun
sun500:00+20ene24915 0.0 101299
03:00+19ese11940 0.0 101216
06:00+20e24945 0.0 1013123
09:00+26ne356861 0.0 1014849
12:00+28nne336056 1.7 10121366
15:00+28n336072 3.1 10111176
18:00+26sw0173100 1.2 101011
21:00+21nne2290100 2.1 101229
6 december, mon
mon600:00+20n1194100 1.3 101315
03:00+19nw0096100 3.4 101211
06:00+20nne22955 0.8 101249
09:00+25nnw237494 1.1 1013509
12:00+30nw335310 0.6 10111657
15:00+28nnw2360100 0.8 1008115
18:00+24nnw238276 0.9 100846
21:00+22nnw25915 1.6 1010112